This demonstration page uses our WeatherBlox Daily Observations layout. Learn more.

Left ArrowRight Arrow

Hourly Observations for August 31, 2022

Temp ( °F °C ) Dew Point ( °F °C ) Humidity (%) Winds ( mph kmh ) Pressure ( in mb ) Visibility ( mi km ) Precip ( " mm )
12:55 am 00:55 Clear 67 19.2 58 14.6 75 75 Calm 30.14 1021 10 16 0.00 0.00
1:55 am 01:55 Clear 64 17.6 58 14.5 82 82 E 3 6 30.13 1020 10 16 0.00 0.00
2:55 am 02:55 Clear 63 17.3 59 14.9 86 86 W 3 6 30.14 1021 10 16 0.00 0.00
3:55 am 03:55 Clear 62 16.9 58 14.2 84 84 Calm 30.14 1021 10 16 0.00 0.00
4:55 am 04:55 undefined 61 16.2 59 15.2 94 94 E 3 6 30.14 1021 10 16 0.00 0.00
5:55 am 05:55 Clear 60 15.4 58 14.6 95 95 Calm 30.14 1021 10 16 0.00 0.00
6:55 am 06:55 undefined 60 15.5 59 15 97 97 Calm 30.14 1021 10 16 0.00 0.00
7:55 am 07:55 Sunny 62 16.7 59 15.2 91 91 Calm 30.16 1021 10 16 0.00 0.00
8:55 am 08:55 Sunny 67 19.5 59 14.9 75 75 ESE 3 6 30.16 1021 10 16 0.00 0.00
9:55 am 09:55 Sunny 72 22.3 61 15.9 67 67 SE 7 11 30.14 1021 10 16 0.00 0.00
10:55 am 10:55 Sunny 78 25.6 63 17.2 60 60 S 3 6 30.13 1020 10 16 0.00 0.00
11:55 am 11:55 undefined 84 28.9 57 13.9 40 40 SSW 10 17 30.11 1020 10 16 0.00 0.00
12:55 pm 12:55 undefined 87 30.3 57 14 37 37 S 12 19 30.09 1019 10 16 0.00 0.00
1:55 pm 13:55 Sunny 88 31.1 56 13.4 34 34 S 9 15 30.07 1018 10 16 0.00 0.00
2:55 pm 14:55 Sunny 89 31.5 60 15.4 38 38 SSE 14 22 30.05 1018 7 11 0.00 0.00
3:55 pm 15:55 undefined 89 31.8 60 15.3 37 37 SSE 14 22 30.02 1017 9 14 0.00 0.00
4:55 pm 16:55 Sunny 89 31.9 60 15.4 37 37 SSE 15 24 30.00 1016 10 16 0.00 0.00
5:55 pm 17:55 Mostly Sunny 89 31.5 58 14.6 36 36 SSE 15 24 29.99 1016 10 16 0.00 0.00
6:55 pm 18:55 Mostly Cloudy 85 29.4 59 15.1 42 42 SSE 9 15 29.99 1016 10 16 0.00 0.00
7:55 pm 19:55 undefined 81 27.3 61 15.9 50 50 SSE 7 11 29.98 1015 10 16 0.00 0.00
8:55 pm 20:55 Partly Cloudy 76 24.7 62 16.9 62 62 Calm 29.99 1016 10 16 0.00 0.00
9:55 pm 21:55 Partly Cloudy 76 24.6 62 16.6 61 61 ESE 3 6 30.02 1017 10 16 0.00 0.00
10:55 pm 22:55 Clear 73 22.7 62 16.9 70 70 Calm 30.01 1016 10 16 0.00 0.00
11:55 pm 23:55 Clear 73 22.9 62 16.4 67 67 ESE 5 7 30.00 1016 10 16 0.00 0.00

Powered by AerisWeather